{"data":{"norad_id":63290,"intl_designator":"2025-054C","name":"COSMOS 2587 (RODNIK-S *)","alt_names":[],"object_type":"PAYLOAD","status":"ACTIVE","operator":null,"country":"CIS","launch_date":"2025-03-16","launch_site_code":"PLMSC","launch_vehicle":null,"mission":null,"orbit_class":"UNKNOWN","rcs_meters":null,"size_class":null,"mass_kg":null,"dimensions":null,"purposes":[],"wikipedia_slug":null,"has_3d_model":false,"image_url":null,"decayed_at":null,"tle_current":{"epoch":"2026-05-25T05:24:26.123040Z","epoch_age_seconds":51620,"freshness":"FRESH","line1":"1 63290U 25054C   26145.22530235  .00000036  00000+0  19059-3 0  9991","line2":"2 63290  82.4966  92.9954 0016182  63.1027 297.1704 12.42892187 54005","mean_motion":12.42892187,"eccentricity":0.0016182,"inclination_deg":82.4966,"raan_deg":92.9954,"arg_perigee_deg":63.1027,"mean_anomaly_deg":297.1704,"bstar":0.00019059,"rev_number":5400,"period_min":115.85880216013,"perigee_km":1481.6273404512,"apogee_km":1507.1059111858,"semimajor_km":7872.5036258185,"source":"CELESTRAK","updated_at":"2026-05-25T13:38:03.618968Z"}}}